Location: Aurora Center
(43.5271°N, 98.5894°W)
Time: 08:56:06
(UTC-05:00)

ACS3 Solar Sail - Pass Details

Date: 20 June 2024
Orbit: 992 x 1023 km, 97.4° (Epoch: 11 July)

Event Time Altitude Azimuth Distance (km) Brightness Sun altitude
Exits shadow 23:52:47 16° 203° (SSW) 2,341 6.4 -18.9°
Maximum altitude 23:57:16 39° 265° (W) 1,456 5.8 -19.3°
Drops below altitude 10° 00:03:03 10° 333° (NNW) 2,767 8.4 -19.7°
Sets 00:05:44 0° 341° (NNW) 3,719 9.5 -19.9°
